Salinas, CA

10:01 PM PST on November 23, 2017 (GMT -0800)
Salinas Municipal

Weather History for KSNS - July, 2013

Change the Weather History Date:

Thursday, July 18, 2013

  Actual Average Record
Temperature  
Mean Temperature 62 °F 63 °F  
Max Temperature 69 °F 71 °F 84 °F (1998)
Min Temperature 54 °F 55 °F 42 °F (1936)
Degree Days  
Heating Degree Days 3 3  
Month to date heating degree days 39 54  
Since 1 June heating degree days 137 167  
Since 1 July heating degree days 39 54  
Cooling Degree Days 0 1  
Month to date cooling degree days 11 18  
Year to date cooling degree days 45 46  
Since 1 June cooling degree days 35 30  
Growing Degree Days 12 (Base 50)    
Moisture  
Dew Point 53 °F    
Average Humidity 78    
Maximum Humidity 93    
Minimum Humidity 63    
Precipitation  
Precipitation 0.00 in 0.00 in 0.00 in (2017)
Month to date precipitation T 0.00  
Year to date precipitation 2.33 8.72  
Since 1 July precipitation T  
Sea Level Pressure  
Sea Level Pressure 30.06 in    
Wind  
Wind Speed 7 mph (West)    
Max Wind Speed 17 mph    
Max Gust Speed 23 mph    
Visibility 8 miles    
Events      
T = Trace of Precipitation, MM = Missing Value Source: NWS Daily Summary

Daily Weather History Graph

Daily Weather History Graph

Search for Another Location

Airport or City:

Trip Planner

Search our weather history database for the weather conditions in past years. The results will help you decide how hot, cold, wet, or windy it might be!

Date:

Astronomy

Jul. 18, 2013 Rise Set
Actual Time 6:01 AM PDT 8:23 PM PDT
Civil Twilight 5:32 AM PDT 8:52 PM PDT
Nautical Twilight 4:55 AM PDT 9:29 PM PDT
Astronomical Twilight 4:15 AM PDT 10:08 PM PDT
Moon 4:26 PM PDT (7/18) 1:54 AM PDT (7/18)
Length of Visible Light 15h 20m
Length of Day
14h 21m
Waxing Gibbous, 78% of the Moon is Illuminated
Jul 18
Waxing Gibbous
Jul 22
Full
Jul 29
Last Quarter
Aug 6
New
Aug 14
First Quarter

Hourly Weather History & Observations

Time (PDT) Temp. Dew Point Humidity Pressure Visibility Wind Dir Wind Speed Gust Speed Precip Events Conditions
12:53 AM 55.9 °F 53.1 °F 90% 30.10 in 10.0 mi NW 4.6 mph - N/A   Overcast
1:53 AM 57.0 °F 54.0 °F 89% 30.09 in 10.0 mi Calm Calm - N/A   Overcast
2:53 AM 55.9 °F 53.1 °F 90% 30.08 in 10.0 mi Calm Calm - N/A   Overcast
3:53 AM 55.9 °F 52.0 °F 87% 30.08 in 10.0 mi SW 3.5 mph - N/A   Overcast
4:53 AM 55.0 °F 52.0 °F 89% 30.08 in 9.0 mi South 4.6 mph - N/A   Overcast
5:53 AM 55.0 °F 52.0 °F 89% 30.09 in 8.0 mi WSW 3.5 mph - N/A   Overcast
6:53 AM 55.0 °F 53.1 °F 93% 30.09 in 5.0 mi Calm Calm - N/A   Overcast
7:53 AM 55.9 °F 53.1 °F 90% 30.10 in 5.0 mi Calm Calm - N/A   Overcast
8:49 AM 55.4 °F 53.6 °F 94% 30.08 in 6.0 mi Calm Calm - N/A   Overcast
8:53 AM 55.9 °F 53.1 °F 90% 30.11 in 6.0 mi Calm Calm - N/A   Overcast
9:53 AM 59.0 °F 53.1 °F 81% 30.10 in 7.0 mi Calm Calm - N/A   Overcast
10:25 AM 60.8 °F 53.6 °F 77% 30.06 in 7.0 mi Calm Calm - N/A   Overcast
10:44 AM 62.6 °F 53.6 °F 72% 30.06 in 7.0 mi Variable 3.5 mph - N/A   Scattered Clouds
10:53 AM 63.0 °F 54.0 °F 72% 30.08 in 7.0 mi West 4.6 mph - N/A   Clear
11:53 AM 68.0 °F 55.0 °F 63% 30.07 in 7.0 mi WNW 9.2 mph - 0.00 in   Clear
12:53 PM 66.9 °F 54.0 °F 63% 30.07 in 10.0 mi West 15.0 mph - 0.00 in   Clear
1:53 PM 66.0 °F 54.0 °F 65% 30.06 in 10.0 mi WNW 17.3 mph 23.0 mph N/A   Clear
2:53 PM 66.0 °F 54.0 °F 65% 30.06 in 9.0 mi WNW 12.7 mph - N/A   Clear
3:53 PM 64.0 °F 53.1 °F 67% 30.04 in 10.0 mi West 13.8 mph - N/A   Clear
4:53 PM 63.0 °F 53.1 °F 70% 30.03 in 9.0 mi WNW 12.7 mph - N/A   Clear
5:34 PM 62.6 °F 53.6 °F 72% 30.00 in 9.0 mi WNW 12.7 mph 20.7 mph N/A   Mostly Cloudy
5:53 PM 60.1 °F 53.1 °F 78% 30.03 in 8.0 mi West 12.7 mph - N/A   Overcast
6:02 PM 60.8 °F 53.6 °F 77% 30.00 in 7.0 mi WNW 12.7 mph - N/A   Overcast
6:53 PM 57.9 °F 53.1 °F 84% 30.02 in 7.0 mi West 13.8 mph - N/A   Overcast
7:53 PM 57.0 °F 53.1 °F 87% 30.02 in 6.0 mi WNW 11.5 mph - N/A   Overcast
8:08 PM 55.4 °F 53.6 °F 94% 30.00 in 5.0 mi WNW 12.7 mph - N/A   Overcast
8:53 PM 55.9 °F 53.1 °F 90% 30.03 in 7.0 mi West 9.2 mph - N/A   Overcast
9:53 PM 55.0 °F 53.1 °F 93% 30.03 in 6.0 mi West 9.2 mph - N/A   Overcast
10:53 PM 55.0 °F 53.1 °F 93% 30.03 in 6.0 mi WNW 6.9 mph - N/A   Overcast
11:53 PM 55.0 °F 52.0 °F 89% 30.02 in 7.0 mi West 5.8 mph - N/A   Overcast